DL2DHM-13 Weather Reports


time (UTC)temp
F
wind
direction
speed
knots
gust
knots
rain 1hr
in
rain 24hr
in
rain mn
in
humidity
%
barometer
mb
20260902194552 62 238 0.0 2.6 0.00 0.01 0.01 82 1018.5
20260902194045 62 245 0.0 3.5 0.00 0.01 0.01 82 1018.5
20260902193545 63 239 0.0 1.7 0.00 0.01 0.01 82 1018.6
20260902193045 63 238 0.0 3.5 0.00 0.01 0.01 81 1018.6
20260902192545 63 279 0.0 2.6 0.00 0.01 0.01 81 1018.5
20260902192045 63 289 0.0 3.5 0.00 0.01 0.01 80 1018.5
20260902191545 63 286 0.0 3.5 0.00 0.01 0.01 80 1018.5
20260902191044 64 40 0.0 4.3 0.00 0.01 0.01 79 1018.5
20260902190544 64 305 0.9 6.1 0.00 0.01 0.01 78 1018.5
20260902190048 64 239 0.9 8.7 0.00 0.01 0.01 77 1018.5
20260902185546 64 281 1.7 8.7 0.00 0.01 0.01 75 1018.5
20260902185043 63 205 3.5 7.8 0.00 0.01 0.01 75 1018.4
20260902184544 63 261 1.7 6.1 0.00 0.01 0.01 76 1018.2
20260902184043 63 237 1.7 3.5 0.00 0.01 0.01 76 1018.2
20260902183543 63 236 0.9 3.5 0.00 0.01 0.01 75 1018.1
20260902183043 63 228 0.9 3.5 0.00 0.01 0.01 75 1018.1
20260902182542 63 227 0.9 2.6 0.00 0.01 0.01 75 1018.1
20260902182047 64 227 0.9 2.6 0.00 0.01 0.01 75 1018.0
20260902181543 64 227 1.7 3.5 0.00 0.01 0.01 74 1018.0
20260902181042 64 225 1.7 3.5 0.00 0.01 0.01 74 1017.9
20260902180542 64 225 1.7 3.5 0.00 0.01 0.01 74 1017.8
20260902180041 64 229 0.9 4.3 0.00 0.01 0.01 74 1017.8
20260902175541 65 229 0.9 4.3 0.00 0.01 0.01 74 1017.8
20260902175041 65 241 0.9 2.6 0.00 0.01 0.01 74 1017.7
20260902174541 65 241 0.9 2.6 0.00 0.01 0.01 73 1017.7
20260902174041 65 241 0.9 2.6 0.00 0.01 0.01 73 1017.7
20260902173541 66 241 0.9 2.6 0.00 0.01 0.01 73 1017.7
20260902173044 66 241 0.9 2.6 0.00 0.01 0.01 71 1017.7
20260902172540 66 241 0.9 2.6 0.00 0.01 0.01 71 1017.6
20260902172044 66 242 0.9 4.3 0.00 0.01 0.01 71 1017.7
20260902171540 66 242 0.9 4.3 0.00 0.01 0.01 70 1017.7
20260902171040 66 234 0.9 4.3 0.00 0.01 0.01 70 1017.7
20260902170540 66 236 1.7 6.1 0.00 0.01 0.01 69 1017.7
20260902170039 66 272 1.7 7.0 0.00 0.01 0.01 69 1017.8
20260902165540 66 230 1.7 7.0 0.00 0.01 0.01 68 1017.7
20260902165039 66 288 2.6 6.1 0.00 0.01 0.01 68 1017.7
20260902164539 67 296 1.7 6.1 0.00 0.01 0.01 68 1017.7
20260902164038 67 319 0.9 7.8 0.00 0.01 0.01 67 1017.6
20260902163539 67 223 2.6 7.8 0.00 0.01 0.01 66 1017.6
20260902163042 68 249 1.7 4.3 0.00 0.01 0.01 65 1017.7
20260902162537 68 269 0.9 6.1 0.00 0.01 0.01 64 1017.6
20260902162038 68 258 1.7 7.0 0.00 0.01 0.01 63 1017.6
20260902161541 68 258 2.6 7.0 0.00 0.01 0.01 62 1017.6
20260902161037 69 227 0.9 7.8 0.00 0.01 0.01 62 1017.6
20260902160638 69 256 3.5 7.8 0.00 0.01 0.01 62 1017.6
20260902160035 68 240 2.6 7.0 0.00 0.01 0.01 61 1017.5
20260902155535 68 234 1.7 4.3 0.00 0.01 0.01 61 1017.5
20260902155037 68 219 0.9 4.3 0.00 0.01 0.01 63 1017.5
20260902154534 68 232 1.7 6.1 0.00 0.01 0.01 61 1017.5
20260902154032 68 225 1.7 6.1 0.00 0.01 0.01 59 1017.5
20260902153532 68 251 0.9 5.2 0.00 0.01 0.01 60 1017.6
20260902153031 68 215 1.7 5.2 0.00 0.01 0.01 60 1017.7
20260902152530 69 216 0.9 5.2 0.00 0.01 0.01 57 1017.7
20260902152030 70 239 0.9 6.1 0.00 0.01 0.01 56 1017.7
20260902151531 70 263 1.7 7.8 0.00 0.01 0.01 57 1017.8
20260902151030 70 205 2.6 7.8 0.00 0.01 0.01 56 1017.8
20260902150529 71 286 1.7 9.6 0.00 0.01 0.01 56 1017.8
20260902150031 71 223 1.7 10.4 0.00 0.01 0.01 57 1017.8
20260902145630 71 209 3.5 10.4 0.00 0.01 0.01 56 1017.8
20260902145028 71 112 2.6 7.8 0.00 0.01 0.01 58 1017.8
20260902144527 71 182 3.5 7.0 0.00 0.01 0.01 58 1017.8
20260902144027 71 212 3.5 9.6 0.00 0.01 0.01 56 1017.9
20260902143527 71 246 1.7 9.6 0.00 0.01 0.01 59 1017.8
20260902143025 71 246 0.9 7.8 0.00 0.01 0.01 59 1017.8
20260902142525 71 287 2.6 7.8 0.00 0.01 0.01 56 1017.9
20260902142025 71 221 2.6 7.8 0.00 0.01 0.01 56 1017.9
20260902141535 71 216 2.6 8.7 0.00 0.01 0.01 59 1018.0
20260902141025 71 171 3.5 8.7 0.00 0.01 0.01 59 1018.0
20260902140523 71 302 2.6 8.7 0.00 0.01 0.01 57 1018.0
20260902140023 71 257 1.7 10.4 0.00 0.01 0.01 60 1018.0
20260902135523 71 234 1.7 7.0 0.00 0.01 0.01 61 1018.1
20260902135022 71 313 0.9 4.3 0.00 0.01 0.01 65 1018.0
20260902134623 70 325 0.9 3.5 0.00 0.01 0.01 63 1018.0
20260902134020 69 355 0.0 2.6 0.00 0.01 0.01 69 1018.0
20260902133520 67 333 0.9 3.5 0.00 0.01 0.01 68 1018.0
20260902133020 67 318 0.9 3.5 0.00 0.01 0.01 69 1018.1
20260902132522 68 348 0.0 4.3 0.00 0.01 0.01 68 1018.1
20260902132019 68 280 0.9 8.7 0.00 0.01 0.01 67 1018.1
20260902131519 69 196 5.2 8.7 0.00 0.01 0.01 64 1017.9
20260902131019 70 225 0.9 7.0 0.00 0.01 0.01 64 1018.0
20260902130522 70 252 3.5 7.8 0.00 0.01 0.01 61 1017.9
20260902130018 70 298 0.9 8.7 0.00 0.01 0.01 64 1018.1
20260902125517 70 209 2.6 8.7 0.00 0.32 0.01 63 1018.1
20260902125020 70 219 4.3 8.7 0.00 0.32 0.01 62 1018.2
20260902124517 70 265 3.5 8.7 0.00 0.32 0.01 61 1018.2
20260902124018 70 246 2.6 7.0 0.00 0.32 0.01 62 1018.2
20260902123516 70 32 1.7 5.2 0.00 0.32 0.01 60 1018.1
20260902123020 70 321 0.9 7.0 0.00 0.32 0.01 64 1018.1
20260902122518 70 310 1.7 7.0 0.00 0.32 0.01 63 1018.1
20260902122014 70 163 1.7 5.2 0.00 0.32 0.01 62 1018.1
20260902121515 70 270 1.7 7.0 0.00 0.32 0.01 66 1018.1
20260902121012 69 5 1.7 7.0 0.00 0.32 0.01 65 1018.1
20260902120511 69 242 0.9 6.1 0.00 0.32 0.01 69 1018.1
20260902120011 69 234 1.7 5.2 0.00 0.32 0.01 66 1018.1
20260902115514 68 224 0.9 5.2 0.00 0.32 0.01 69 1018.2
20260902115012 68 220 0.9 5.2 0.00 0.32 0.01 68 1018.4
20260902114511 69 279 0.9 7.0 0.00 0.32 0.01 68 1018.3
20260902114011 69 343 2.6 7.0 0.00 0.32 0.01 70 1018.4
20260902113507 68 216 0.9 4.3 0.00 0.32 0.01 72 1018.5
20260902113005 68 275 0.9 6.1 0.00 0.32 0.01 71 1018.5
20260902112504 67 229 0.9 7.0 0.00 0.32 0.01 72 1018.5
20260902112004 66 277 1.7 7.0 0.00 0.32 0.01 71 1018.6
20260902111504 67 219 1.7 6.1 0.00 0.32 0.01 70 1018.6
20260902111003 66 38 0.0 6.1 0.00 0.32 0.01 74 1018.5
20260902110503 66 205 1.7 6.1 0.00 0.32 0.01 71 1018.5
20260902110008 67 105 0.0 2.6 0.00 0.32 0.01 72 1018.5
20260902105504 67 205 0.0 6.1 0.00 0.32 0.01 70 1018.5
20260902105002 67 333 0.9 6.1 0.00 0.32 0.01 69 1018.5
20260902104508 68 298 1.7 6.1 0.00 0.32 0.01 71 1018.5
20260902104001 67 209 1.7 7.0 0.00 0.32 0.01 69 1018.6
20260902103600 67 295 2.6 7.0 0.00 0.32 0.01 71 1018.6
20260902103059 66 197 1.7 3.5 0.00 0.32 0.01 76 1018.5
20260902102559 66 324 0.9 3.5 0.00 0.32 0.01 73 1018.6
20260902102103 67 281 0.9 4.3 0.00 0.32 0.01 75 1018.6
20260902101601 66 242 1.7 6.1 0.00 0.32 0.01 72 1018.7
20260902101057 66 269 1.7 6.1 0.00 0.32 0.01 73 1018.7
20260902100557 67 246 1.7 3.5 0.00 0.32 0.01 75 1018.6
20260902100123 67 252 0.9 3.5 0.00 0.32 0.01 77 1018.7
20260902095600 66 341 0.9 3.5 0.00 0.32 0.01 74 1018.7
20260902095059 66 271 1.7 3.5 0.00 0.32 0.01 74 1018.7
20260902094554 66 19 1.7 4.3 0.00 0.32 0.01 80 1018.7
20260902094053 65 213 1.7 4.3 0.00 0.32 0.01 78 1018.7
20260902093553 65 11 0.9 3.5 0.00 0.32 0.01 80 1018.8
20260902093100 64 238 0.9 6.1 0.00 0.32 0.01 80 1018.8
20260902092550 64 213 0.0 6.1 0.00 0.32 0.01 81 1018.8
20260902092050 64 246 0.9 4.3 0.00 0.32 0.01 82 1018.8
20260902091551 64 227 0.0 4.3 0.00 0.32 0.01 84 1018.7
20260902091049 64 242 0.0 2.6 0.00 0.32 0.01 83 1018.7
20260902090549 64 241 0.0 2.6 0.00 0.32 0.01 85 1018.7
20260902090048 64 197 0.0 2.6 0.00 0.32 0.01 87 1018.7
20260902085548 63 194 0.9 2.6 0.00 0.32 0.01 89 1018.7
20260902085045 62 115 0.0 1.7 0.00 0.32 0.01 91 1018.7
20260902084544 61 113 0.0 1.7 0.00 0.32 0.01 93 1018.7
20260902084042 60 113 0.0 1.7 0.00 0.32 0.01 93 1018.8
20260902083540 60 113 0.0 2.6 0.00 0.32 0.01 93 1018.8
20260902083046 59 115 0.0 1.7 0.00 0.32 0.01 93 1018.8
20260902082537 59 115 0.0 1.7 0.00 0.32 0.01 93 1018.7
20260902082037 58 91 0.0 2.6 0.00 0.32 0.01 94 1018.7
20260902081553 58 91 0.0 2.6 0.00 0.32 0.01 94 1018.7
20260902081035 58 91 0.9 2.6 0.00 0.32 0.01 94 1018.6
20260902080536 58 91 0.9 2.6 0.00 0.32 0.01 94 1018.6
20260902080036 58 92 0.9 2.6 0.00 0.32 0.01 94 1018.6
20260902075532 57 94 0.0 1.7 0.00 0.32 0.01 94 1018.6
20260902075033 57 94 0.0 3.5 0.00 0.32 0.01 94 1018.5
20260902074532 57 94 0.0 3.5 0.00 0.32 0.01 94 1018.5
20260902074031 57 115 0.0 2.6 0.00 0.32 0.01 94 1018.3
20260902073533 57 115 0.0 2.6 0.00 0.32 0.01 94 1018.3
20260902073030 57 117 0.9 2.6 0.00 0.32 0.01 94 1018.4
20260902072529 57 117 0.0 1.7 0.00 0.32 0.01 94 1018.4
20260902072029 57 117 0.0 1.7 0.00 0.32 0.01 94 1018.4
20260902071535 56 117 0.9 3.5 0.00 0.32 0.01 94 1018.4
20260902071028 56 117 0.0 3.5 0.00 0.32 0.01 94 1018.3
20260902070529 56 118 0.9 2.6 0.00 0.32 0.01 94 1018.4
20260902070033 56 115 0.9 2.6 0.00 0.32 0.01 94 1018.4
20260902065528 56 109 0.9 2.6 0.00 0.32 0.01 94 1018.4
20260902065026 56 110 0.0 2.6 0.00 0.32 0.01 94 1018.4
20260902064526 56 110 0.9 2.6 0.00 0.32 0.01 94 1018.3
20260902064027 55 110 0.9 3.5 0.00 0.32 0.01 94 1018.4
20260902063524 55 111 0.9 3.5 0.00 0.32 0.01 94 1018.4
20260902063023 55 115 0.0 1.7 0.00 0.32 0.01 94 1018.4
20260902062521 55 115 0.0 1.7 0.00 0.32 0.01 94 1018.3
20260902062020 55 115 0.0 1.7 0.00 0.32 0.01 94 1018.4
20260902061520 55 115 0.0 1.7 0.00 0.32 0.01 94 1018.3
20260902061029 55 115 0.0 0.9 0.00 0.32 0.01 94 1018.3
20260902060518 55 117 0.0 1.7 0.00 0.32 0.01 94 1018.3
20260902060016 54 117 0.0 2.6 0.00 0.32 0.01 94 1018.3
20260902055515 54 117 0.0 2.6 0.00 0.32 0.01 94 1018.2
20260902055015 54 117 0.0 1.7 0.00 0.32 0.01 94 1018.3
20260902054514 54 117 0.0 2.6 0.00 0.32 0.01 94 1018.3
20260902054013 54 117 0.0 2.6 0.00 0.32 0.01 94 1018.3
20260902053513 54 110 0.0 2.6 0.00 0.32 0.01 94 1018.3
20260902053014 54 110 0.0 1.7 0.00 0.32 0.01 94 1018.2
20260902052512 54 110 0.0 2.6 0.00 0.32 0.01 94 1018.3
20260902052011 54 111 0.0 2.6 0.00 0.32 0.01 94 1018.3
20260902051510 54 110 0.0 1.7 0.00 0.32 0.01 94 1018.3
20260902051013 54 110 0.0 3.5 0.00 0.32 0.01 94 1018.2
20260902050511 54 110 0.9 3.5 0.00 0.32 0.01 94 1018.2
20260902050011 54 108 0.0 2.6 0.00 0.32 0.01 94 1018.3
20260902045510 54 109 0.9 2.6 0.00 0.32 0.01 94 1018.3
20260902045009 54 99 0.0 2.6 0.00 0.32 0.01 94 1018.3
20260902044522 54 99 0.0 2.6 0.00 0.32 0.01 94 1018.3
20260902044009 54 99 0.0 2.6 0.00 0.32 0.01 94 1018.3
20260902043508 54 101 0.0 0.0 0.00 0.32 0.01 94 1018.4
20260902043006 54 101 0.0 0.0 0.00 0.32 0.01 94 1018.4
20260902042506 54 101 0.0 0.9 0.00 0.32 0.01 94 1018.4
20260902042005 54 101 0.0 0.9 0.00 0.32 0.01 94 1018.4
20260902041505 54 101 0.0 0.9 0.00 0.32 0.01 94 1018.4
20260902041007 54 101 0.0 0.9 0.00 0.32 0.01 94 1018.3
20260902040506 54 101 0.0 1.7 0.00 0.32 0.01 94 1018.3
20260902040004 54 101 0.0 3.5 0.00 0.32 0.01 94 1018.2
20260902035503 54 101 1.7 3.5 0.00 0.32 0.01 94 1018.3
20260902035003 54 126 0.9 3.5 0.00 0.32 0.01 94 1018.3
20260902034503 53 128 0.9 2.6 0.00 0.32 0.01 94 1018.3
20260902034002 53 128 0.9 3.5 0.00 0.32 0.01 94 1018.3
20260902033503 53 128 0.9 3.5 0.00 0.32 0.01 94 1018.5
20260902033001 53 132 0.0 3.5 0.00 0.32 0.01 94 1018.5
20260902032601 53 133 0.9 2.6 0.00 0.32 0.01 94 1018.5
20260902032100 53 148 0.9 2.6 0.00 0.32 0.01 94 1018.4
20260902031601 53 156 0.0 2.6 0.00 0.32 0.01 94 1018.5
20260902031100 53 156 0.0 1.7 0.00 0.32 0.01 94 1018.5
20260902030559 52 156 0.0 1.7 0.00 0.32 0.01 94 1018.6
20260902030059 52 156 0.0 1.7 0.00 0.32 0.01 94 1018.6
20260902025558 52 156 0.0 1.7 0.00 0.32 0.01 94 1018.6
20260902025100 52 156 0.0 0.9 0.00 0.32 0.01 94 1018.5
20260902024608 51 156 0.0 1.7 0.00 0.32 0.01 94 1018.6
20260902024057 51 156 0.0 1.7 0.00 0.32 0.01 94 1018.5
20260902023600 51 156 0.0 0.9 0.00 0.32 0.01 94 1018.6
20260902023059 51 156 0.0 0.9 0.00 0.32 0.01 94 1018.6
20260902022604 51 156 0.0 0.9 0.00 0.32 0.01 94 1018.6
20260902022057 51 156 0.0 0.0 0.00 0.32 0.01 94 1018.8
20260902021556 51 156 0.0 0.0 0.00 0.32 0.01 94 1018.7
20260902021056 51 156 0.0 0.0 0.00 0.32 0.01 94 1018.6
20260902020556 51 156 0.0 0.0 0.00 0.32 0.01 94 1018.7
20260902020116 51 156 0.0 0.0 0.00 0.32 0.01 94 1018.7
20260902015556 52 156 0.0 0.9 0.00 0.32 0.01 94 1018.8
20260902015056 52 156 0.0 0.9 0.00 0.32 0.01 94 1018.8
20260902014601 52 156 0.0 0.9 0.00 0.32 0.01 94 1018.8
20260902014055 52 156 0.0 0.9 0.00 0.32 0.01 94 1018.8
20260902013555 52 157 0.0 0.0 0.00 0.32 0.01 94 1018.8
20260902013055 51 157 0.0 0.0 0.00 0.32 0.01 94 1018.9
20260902012554 52 157 0.0 0.0 0.00 0.32 0.01 94 1018.9
20260902012100 51 157 0.0 0.0 0.00 0.32 0.01 94 1018.8
20260902011554 51 157 0.0 0.9 0.00 0.32 0.01 94 1018.9
20260902011055 51 157 0.0 2.6 0.00 0.32 0.01 94 1018.8
20260902010555 51 157 0.0 2.6 0.00 0.32 0.01 94 1018.6
20260902010054 51 157 0.0 2.6 0.00 0.32 0.01 94 1018.6
20260902005558 51 236 0.0 0.9 0.00 0.32 0.01 94 1018.6
20260902005054 51 236 0.0 1.7 0.00 0.32 0.01 94 1018.6
20260902004554 51 236 0.0 1.7 0.00 0.32 0.01 94 1018.5
20260902004053 51 238 0.0 0.9 0.00 0.32 0.01 94 1018.6
20260902003553 51 238 0.0 0.0 0.00 0.32 0.01 94 1018.7
20260902003059 50 238 0.0 0.0 0.00 0.32 0.01 94 1018.6
20260902002551 50 238 0.0 0.0 0.00 0.32 0.01 93 1018.6
20260902002051 51 238 0.0 0.0 0.00 0.32 0.01 93 1018.6
20260902001551 51 238 0.0 0.0 0.00 0.32 0.01 93 1018.7
20260902001051 51 238 0.0 0.0 0.00 0.32 0.01 93 1018.7
20260902000549 51 238 0.0 0.0 0.00 0.32 0.01 93 1018.7
20260902000050 51 238 0.0 0.0 0.00 0.32 0.01 93 1018.7
20260901235550 51 238 0.0 0.0 0.00 0.36 0.01 93 1018.8
20260901235047 51 238 0.0 0.0 0.00 0.36 0.01 93 1018.8
20260901234602 51 238 0.0 0.0 0.00 0.36 0.01 93 1019.0
20260901234046 51 238 0.0 0.0 0.00 0.36 0.01 93 1019.0
20260901233546 51 238 0.0 0.0 0.00 0.36 0.01 93 1019.0
20260901233052 51 238 0.0 0.0 0.00 0.36 0.01 93 1019.0
20260901232544 51 238 0.0 0.0 0.00 0.36 0.01 93 1019.1
20260901232047 51 238 0.0 0.0 0.00 0.36 0.01 93 1019.1
20260901231544 52 238 0.0 0.0 0.00 0.36 0.01 93 1019.1
20260901231043 52 238 0.0 0.0 0.00 0.36 0.01 93 1019.2
20260901230543 52 238 0.0 0.0 0.01 0.36 0.01 93 1019.2
20260901230049 52 238 0.0 0.0 0.01 0.36 0.01 93 1019.2
20260901225542 52 238 0.0 0.0 0.01 0.36 0.01 93 1019.2
20260901225042 52 238 0.0 0.0 0.01 0.36 0.01 93 1019.2
20260901224545 52 238 0.0 0.0 0.01 0.36 0.01 93 1019.2
20260901224042 52 238 0.0 0.0 0.01 0.36 0.01 93 1019.2
20260901223540 52 238 0.0 0.0 0.01 0.36 0.01 93 1019.2
20260901223038 52 238 0.0 0.0 0.01 0.36 0.01 93 1019.2
20260901222539 53 238 0.0 0.0 0.01 0.36 0.01 93 1019.2
20260901222037 53 238 0.0 0.0 0.01 0.36 0.01 93 1019.1
20260901221602 53 238 0.0 0.0 0.01 0.36 0.01 93 1019.2
20260901221036 53 238 0.0 0.0 0.01 0.36 0.01 93 1019.1
20260901220536 53 238 0.0 0.0 0.00 0.35 0.00 93 1019.1
20260901220035 53 238 0.0 0.0 0.00 0.35 0.00 93 1019.1
20260901215534 53 238 0.0 0.9 0.00 0.35 0.35 93 1019.1
20260901215034 53 238 0.0 0.9 0.00 0.35 0.35 93 1019.1
20260901214533 54 238 0.0 0.0 0.00 0.35 0.35 93 1019.0
20260901214033 54 238 0.0 0.0 0.00 0.35 0.35 93 1019.1
20260901213531 54 238 0.0 0.0 0.00 0.35 0.35 93 1019.0
20260901213029 54 238 0.0 0.0 0.00 0.35 0.35 93 1019.0
20260901212529 54 238 0.0 0.0 0.00 0.35 0.35 93 1018.9
20260901212031 55 238 0.0 0.0 0.00 0.35 0.35 93 1018.9
20260901211534 55 238 0.0 0.9 0.00 0.35 0.35 93 1018.8
20260901211031 55 238 0.0 1.7 0.00 0.35 0.35 93 1018.8
20260901210526 55 238 0.0 0.0 0.00 0.35 0.35 93 1018.8
20260901210026 55 238 0.0 0.0 0.00 0.35 0.35 93 1018.8
20260901205526 56 238 0.0 0.0 0.00 0.37 0.35 93 1018.8
20260901205024 56 238 0.0 0.0 0.00 0.37 0.35 93 1018.8
20260901204532 56 238 0.0 0.0 0.00 0.37 0.35 93 1018.9
20260901204022 56 238 0.0 0.0 0.00 0.37 0.35 93 1018.8
20260901203522 56 238 0.0 0.0 0.00 0.37 0.35 93 1018.8
20260901203040 56 238 0.0 0.0 0.00 0.37 0.35 93 1018.7
20260901202522 56 238 0.0 0.9 0.00 0.37 0.35 93 1018.8
20260901202030 56 238 0.0 1.7 0.00 0.37 0.35 93 1018.8
20260901201534 56 238 0.0 1.7 0.00 0.37 0.35 93 1018.7
20260901201021 56 238 0.0 0.0 0.00 0.37 0.35 92 1018.8
20260901200519 56 238 0.0 0.0 0.00 0.37 0.35 92 1018.7
20260901200020 56 238 0.0 0.0 0.00 0.37 0.35 92 1018.8
20260901195518 57 238 0.0 0.0 0.00 0.37 0.35 92 1018.8
20260901195016 57 238 0.0 0.0 0.00 0.37 0.35 92 1018.8